George, South Africa

5:38 PM SAST on April 20, 2018 (GMT +0200)
George

Weather History for FAGG - October, 2010

Change the Weather History Date:

Sunday, October 24, 2010

  Actual Average Record
Temperature  
Mean Temperature 56 °F -  
Max Temperature 58 °F 69 °F 79 °F (2015)
Min Temperature 53 °F 52 °F 48 °F (2000)
Degree Days  
Heating Degree Days 10    
Growing Degree Days 6 (Base 50)    
Moisture  
Dew Point 55 °F    
Average Humidity 99    
Maximum Humidity 100    
Minimum Humidity 94    
Precipitation  
Precipitation 1.26 in - - ()
Sea Level Pressure  
Sea Level Pressure 29.92 in    
Wind  
Wind Speed 6 mph ()    
Max Wind Speed 22 mph    
Max Gust Speed -    
Visibility 4.8 miles    
Events Rain    
Averages and records for this station are not official NWS values.
T = Trace of Precipitation, MM = Missing Value Source: Averaged Metar Reports

Daily Weather History Graph

Daily Weather History Graph

Search for Another Location

Airport or City:

Astronomy

Oct. 24, 2010 Rise Set
Actual Time 5:38 AM SAST 6:51 PM SAST
Civil Twilight 5:12 AM SAST 7:17 PM SAST
Nautical Twilight 4:41 AM SAST 7:48 PM SAST
Astronomical Twilight 4:09 AM SAST 8:20 PM SAST
Moon 8:29 PM SAST (10/24) 6:02 AM SAST (10/24)
Length of Visible Light 14h 05m
Length of Day
13h 12m
Full, 98% of the Moon is Illuminated
Oct 24
Full
Oct 30
Last Quarter
Nov 6
New
Nov 13
First Quarter
Nov 21
Full

Hourly Weather History & Observations

Time (SAST) Temp. Dew Point Humidity Pressure Visibility Wind Dir Wind Speed Gust Speed Precip Events Conditions
12:00 AM 55.4 °F 53.6 °F 94% 30.01 in 6.2 mi ENE 5.8 mph - N/A   Mostly Cloudy
1:00 AM 55.4 °F 53.6 °F 94% 29.98 in 6.2 mi East 3.5 mph - N/A   Overcast
2:00 AM 55 °F 54 °F 98% 29.97 in 19 mi SSW 2.3 mph - -  
2:00 AM 55.4 °F 55.4 °F 100% 29.95 in 6.2 mi Calm Calm - N/A   Overcast
3:00 AM 55.4 °F 55.4 °F 100% 29.95 in 6.2 mi ENE 2.3 mph - N/A   Mostly Cloudy
4:00 AM 55.4 °F 55.4 °F 100% 29.92 in 6.2 mi Variable 1.2 mph - N/A   Mostly Cloudy
5:00 AM 55 °F 54 °F 98% 29.93 in 12 mi Calm Calm - -   Overcast
5:00 AM 55.4 °F 55.4 °F 100% 29.92 in 6.2 mi Variable 1.2 mph - N/A   Overcast
6:00 AM 53.6 °F 53.6 °F 100% 29.92 in 2.5 mi NW 3.5 mph - N/A   Heavy Drizzle
7:00 AM 55.4 °F 55.4 °F 100% 29.92 in 3.7 mi WNW 4.6 mph - N/A   Light Drizzle
8:00 AM 55 °F 55 °F 100% 29.93 in 2 mi West 4.6 mph - - Rain Light Rain
8:00 AM 55.4 °F 55.4 °F 100% 29.92 in 1.9 mi West 4.6 mph - N/A Rain Light Rain
9:00 AM 57.2 °F 57.2 °F 100% 29.92 in 1.9 mi WSW 6.9 mph - N/A   Light Drizzle
10:00 AM 57.2 °F 57.2 °F 100% 29.89 in 1.9 mi West 6.9 mph - N/A   Drizzle
11:00 AM 58 °F 58 °F 100% 29.90 in 2 mi WSW 8.1 mph - - Rain Light Rain
11:00 AM 59.0 °F 59.0 °F 100% 29.89 in 3.1 mi WSW 8.1 mph - N/A Rain Light Rain
12:00 PM 57.2 °F 57.2 °F 100% 29.86 in 1.5 mi West 10.4 mph - N/A Rain Light Rain
1:00 PM 57.2 °F 57.2 °F 100% 29.86 in 2.2 mi West 8.1 mph - N/A Rain Light Rain
2:00 PM 57 °F 57 °F 100% 29.88 in 2 mi WSW 9.2 mph - - Rain Light Rain
2:00 PM 57.2 °F 57.2 °F 100% 29.86 in 2.5 mi West 9.2 mph - N/A Rain Light Rain
3:00 PM 57.2 °F 57.2 °F 100% 29.86 in 6.2 mi ESE 5.8 mph - N/A   Mostly Cloudy
4:00 PM 57.2 °F 57.2 °F 100% 29.89 in 3.1 mi Variable 2.3 mph - N/A Rain Light Rain
5:00 PM 53 °F 53 °F 100% 29.91 in 2 mi West 21.9 mph - - Rain Light Rain
5:00 PM 53.6 °F 53.6 °F 100% 29.89 in - West 21.9 mph - N/A Rain Light Rain
6:00 PM 53.6 °F 53.6 °F 100% 29.92 in 5.0 mi West 17.3 mph - N/A Rain Light Rain
7:00 PM 53.6 °F 53.6 °F 100% 29.95 in 6.2 mi WNW 11.5 mph - N/A Rain Light Rain
8:00 PM 53 °F 53 °F 100% 29.96 in 44 mi NW 10.4 mph - - Rain Light Rain
8:00 PM 53.6 °F 53.6 °F 100% 29.95 in - NW 10.4 mph - N/A   Clear
9:00 PM 53.6 °F 53.6 °F 100% 29.95 in 6.2 mi West 13.8 mph - N/A   Partly Cloudy
10:00 PM 53.6 °F 51.8 °F 94% 29.98 in 6.2 mi West 12.7 mph - N/A   Light Drizzle
11:00 PM 53.6 °F 53.6 °F 100% 29.98 in 3.1 mi NW 11.5 mph - N/A Rain Heavy Rain